Regional Weather Roundup
Issued by NWS

Home | Current Version | Previous Version | Graphics & Text | Print | Product List | Glossary On
Versions: 1 2 3 4 5 6 7 8 9 10 11 12 13 14 15 16 17 18 19 20 21 22 23 24 25 26 27 28 29 30 31 32 33 34 35 36 37 38 39 40 41 42 43 44 45 46 47 48 49 50
000
ASUS43 KBIS 170402
RWRND

NORTH DAKOTA REGIONAL WEATHER ROUNDUP
NATIONAL WEATHER SERVICE BISMARCK ND
1100 PM CDT MON OCT 16 2017

NOTE: "FAIR" INDICATES FEW OR NO CLOUDS BELOW 12,000 FEET WITH NO
SIGNIFICANT WEATHER AND/OR OBSTRUCTIONS TO VISIBILITY.


NDZ001>003-009>011-017-170500-
NORTHWEST NORTH DAKOTA

CITY           SKY/WX    TMP DP  RH WIND       PRES   REMARKS
WILLISTON      CLEAR     42  32  67 CALM      29.93S
MINOT          CLEAR     50  34  54 SW12      29.91S
MINOT AFB      CLEAR     45  33  63 W9        29.90S
$$

NDZ018>021-031>035-040>046-170500-
SOUTHWEST NORTH DAKOTA

CITY           SKY/WX    TMP DP  RH WIND       PRES   REMARKS
BISMARCK       CLOUDY    42  32  67 CALM      29.98R
DICKINSON      CLEAR     44  29  55 CALM      29.98S
GARRISON         N/A     43  33  68 CALM      29.95R
HETTINGER ARPT CLEAR     38  26  62 CALM      30.04S
$$

NDZ004>008-012>016-024-026-027-054-170500-
NORTHEAST NORTH DAKOTA

CITY           SKY/WX    TMP DP  RH WIND       PRES   REMARKS
GRAND FORKS    PTCLDY    49  37  63 W7        29.89R
GRND FRKS AFB  CLOUDY    49  35  58 W6        29.89R
DEVILS LAKE    CLOUDY    41  35  79 W9        29.92S
$$

NDZ022-023-025-028>030-036>039-047>053-170500-
SOUTHEAST NORTH DAKOTA

CITY           SKY/WX    TMP DP  RH WIND       PRES   REMARKS
FARGO          CLOUDY    47  39  74 SW5       29.91R
JAMESTOWN      CLOUDY    45  34  65 CALM      29.94R
$$





USA.gov is the U.S. government's official web portal to all federal, state and local government web resources and services.